Time,TemperatureF,DewpointF,PressureIn,WindDirection,WindDirectionDegrees,WindSpeedMPH,WindSpeedGustMPH,Humidity,HourlyPrecipIn,Conditions,Clouds,dailyrainin,SoftwareType,DateUTC
2013-08-24 00:01:00,64.8,35.0,29.68,NNE,26,0.0,0.0,33,0.00,,SKC,0.00,VWS V14.01,2013-08-24 04:01:00,
2013-08-24 00:06:00,64.6,34.8,29.68,NNE,26,0.0,0.0,33,0.00,,SKC,0.00,VWS V14.01,2013-08-24 04:06:00,
2013-08-24 00:11:00,64.4,34.7,29.68,NNE,26,0.0,0.0,33,0.00,,SKC,0.00,VWS V14.01,2013-08-24 04:11:00,
2013-08-24 00:16:00,64.2,35.3,29.68,NNE,26,0.0,0.0,34,0.00,,SKC,0.00,VWS V14.01,2013-08-24 04:16:00,
2013-08-24 00:21:00,64.2,34.5,29.68,NNE,26,0.0,0.0,33,0.00,,SKC,0.00,VWS V14.01,2013-08-24 04:21:00,
2013-08-24 00:26:00,64.2,35.3,29.68,NNE,26,0.0,0.0,34,0.00,,SKC,0.00,VWS V14.01,2013-08-24 04:26:00,
2013-08-24 00:31:00,64.0,34.4,29.68,NE,49,0.0,0.0,33,0.00,,SKC,0.00,VWS V14.01,2013-08-24 04:31:00,
2013-08-24 00:36:00,64.2,34.5,29.68,NE,38,0.0,0.0,33,0.00,,SKC,0.00,VWS V14.01,2013-08-24 04:36:00,
2013-08-24 00:41:00,64.2,34.5,29.68,NE,44,0.0,0.0,33,0.00,,SKC,0.00,VWS V14.01,2013-08-24 04:41:00,
2013-08-24 00:46:00,64.2,34.5,29.68,ENE,58,0.0,0.0,33,0.00,,SKC,0.00,VWS V14.01,2013-08-24 04:46:00,
2013-08-24 00:51:00,64.0,33.6,29.68,ENE,57,0.0,0.0,32,0.00,,SKC,0.00,VWS V14.01,2013-08-24 04:51:00,
2013-08-24 00:56:00,64.2,34.5,29.68,NNE,23,0.0,0.0,33,0.00,,SKC,0.00,VWS V14.01,2013-08-24 04:56:00,
2013-08-24 01:01:00,64.2,33.8,29.68,ENE,70,0.0,0.0,32,0.00,,SKC,0.00,VWS V14.01,2013-08-24 05:01:00,
2013-08-24 01:06:00,64.2,34.5,29.68,ENE,70,0.0,0.0,33,0.00,,SKC,0.00,VWS V14.01,2013-08-24 05:06:00,
2013-08-24 01:11:00,64.2,34.5,29.68,ENE,70,0.0,0.0,33,0.00,,SKC,0.00,VWS V14.01,2013-08-24 05:11:00,
2013-08-24 01:16:00,64.0,34.4,29.68,NE,41,0.0,0.0,33,0.00,,SKC,0.00,VWS V14.01,2013-08-24 05:16:00,
2013-08-24 01:20:00,63.9,35.0,29.68,NE,41,0.0,0.0,34,0.00,,SKC,0.00,VWS V14.01,2013-08-24 05:20:00,
2013-08-24 01:25:00,63.5,33.9,29.68,NE,41,0.0,0.0,33,0.00,,SKC,0.00,VWS V14.01,2013-08-24 05:25:00,
2013-08-24 01:30:00,63.3,33.8,29.68,NE,41,0.0,0.0,33,0.00,,SKC,0.00,VWS V14.01,2013-08-24 05:30:00,
2013-08-24 01:35:00,63.0,34.2,29.68,NE,39,0.0,0.0,34,0.00,,SKC,0.00,VWS V14.01,2013-08-24 05:35:00,
2013-08-24 01:40:00,63.0,34.2,29.71,NE,36,0.0,0.0,34,0.00,,SKC,0.00,VWS V14.01,2013-08-24 05:40:00,
2013-08-24 01:45:00,62.8,34.0,29.71,North,0,0.0,0.0,34,0.00,,SKC,0.00,VWS V14.01,2013-08-24 05:45:00,
2013-08-24 01:50:00,62.8,34.0,29.71,North,0,0.0,0.0,34,0.00,,SKC,0.00,VWS V14.01,2013-08-24 05:50:00,
2013-08-24 01:55:00,62.6,33.9,29.71,North,0,0.0,0.0,34,0.00,,SKC,0.00,VWS V14.01,2013-08-24 05:55:00,
2013-08-24 02:00:00,62.4,34.4,29.71,North,0,0.0,0.0,35,0.00,,SKC,0.00,VWS V14.01,2013-08-24 06:00:00,
2013-08-24 02:05:00,62.2,34.3,29.71,North,0,0.0,0.0,35,0.00,,SKC,0.00,VWS V14.01,2013-08-24 06:05:00,
2013-08-24 02:10:00,61.9,34.0,29.71,North,0,0.0,0.0,35,0.00,,SKC,0.00,VWS V14.01,2013-08-24 06:10:00,
2013-08-24 02:15:00,61.5,34.3,29.71,North,0,0.0,0.0,36,0.00,,SKC,0.00,VWS V14.01,2013-08-24 06:15:00,
2013-08-24 02:20:00,61.2,34.0,29.71,North,0,0.0,0.0,36,0.00,,SKC,0.00,VWS V14.01,2013-08-24 06:20:00,
2013-08-24 02:25:00,60.8,33.7,29.71,North,0,0.0,0.0,36,0.00,,SKC,0.00,VWS V14.01,2013-08-24 06:25:00,
2013-08-24 02:30:00,60.4,34.1,29.71,North,0,0.0,0.0,37,0.00,,SKC,0.00,VWS V14.01,2013-08-24 06:30:00,
2013-08-24 02:35:00,60.3,33.9,29.71,North,0,0.0,0.0,37,0.00,,SKC,0.00,VWS V14.01,2013-08-24 06:35:00,
2013-08-24 02:40:00,60.1,34.4,29.71,North,0,0.0,0.0,38,0.00,,SKC,0.00,VWS V14.01,2013-08-24 06:40:00,
2013-08-24 02:45:00,59.9,34.2,29.71,North,0,0.0,0.0,38,0.00,,SKC,0.00,VWS V14.01,2013-08-24 06:45:00,
2013-08-24 02:50:00,59.5,34.6,29.71,North,0,0.0,0.0,39,0.00,,SKC,0.00,VWS V14.01,2013-08-24 06:50:00,
2013-08-24 02:55:00,59.4,34.4,29.74,North,0,0.0,0.0,39,0.00,,SKC,0.00,VWS V14.01,2013-08-24 06:55:00,
2013-08-24 03:00:00,59.2,34.9,29.74,North,0,0.0,0.0,40,0.00,,SKC,0.00,VWS V14.01,2013-08-24 07:00:00,
2013-08-24 03:05:00,59.0,34.7,29.74,North,0,0.0,0.0,40,0.00,,SKC,0.00,VWS V14.01,2013-08-24 07:05:00,
2013-08-24 03:10:00,58.8,35.2,29.74,North,0,0.0,0.0,41,0.00,,SKC,0.00,VWS V14.01,2013-08-24 07:10:00,
2013-08-24 03:15:00,58.8,35.2,29.74,North,0,0.0,0.0,41,0.00,,SKC,0.00,VWS V14.01,2013-08-24 07:15:00,
2013-08-24 03:20:00,58.8,35.2,29.74,North,0,0.0,0.0,41,0.00,,SKC,0.00,VWS V14.01,2013-08-24 07:20:00,
2013-08-24 03:25:00,58.8,35.8,29.74,North,0,0.0,0.0,42,0.00,,SKC,0.00,VWS V14.01,2013-08-24 07:25:00,
2013-08-24 03:30:00,58.6,35.6,29.74,North,0,0.0,0.0,42,0.00,,SKC,0.00,VWS V14.01,2013-08-24 07:30:00,
2013-08-24 03:35:00,58.6,36.2,29.74,North,0,0.0,0.0,43,0.00,,SKC,0.00,VWS V14.01,2013-08-24 07:35:00,
2013-08-24 03:40:00,58.6,36.2,29.74,North,0,0.0,0.0,43,0.00,,SKC,0.00,VWS V14.01,2013-08-24 07:40:00,
2013-08-24 03:45:00,58.6,36.2,29.74,North,0,0.0,0.0,43,0.00,,SKC,0.00,VWS V14.01,2013-08-24 07:45:00,
2013-08-24 03:50:00,58.5,36.7,29.74,North,0,0.0,0.0,44,0.00,,SKC,0.00,VWS V14.01,2013-08-24 07:50:00,
2013-08-24 03:55:00,58.5,36.7,29.74,North,0,0.0,0.0,44,0.00,,SKC,0.00,VWS V14.01,2013-08-24 07:55:00,
2013-08-24 04:00:00,58.5,36.7,29.74,North,0,0.0,0.0,44,0.00,,SKC,0.00,VWS V14.01,2013-08-24 08:00:00,
2013-08-24 04:05:00,58.3,37.0,29.74,North,0,0.0,0.0,45,0.00,,SKC,0.00,VWS V14.01,2013-08-24 08:05:00,
2013-08-24 04:10:00,58.3,37.0,29.74,North,0,0.0,0.0,45,0.00,,SKC,0.00,VWS V14.01,2013-08-24 08:10:00,
2013-08-24 04:15:00,58.1,36.9,29.74,North,0,0.0,0.0,45,0.00,,SKC,0.00,VWS V14.01,2013-08-24 08:15:00,
2013-08-24 04:20:00,57.9,36.7,29.74,North,0,0.0,0.0,45,0.00,,SKC,0.00,VWS V14.01,2013-08-24 08:20:00,
2013-08-24 04:25:00,57.7,36.6,29.74,North,0,0.0,0.0,45,0.00,,SKC,0.00,VWS V14.01,2013-08-24 08:25:00,
2013-08-24 04:30:00,57.7,37.1,29.74,North,0,0.0,0.0,46,0.00,,SKC,0.00,VWS V14.01,2013-08-24 08:30:00,
2013-08-24 04:35:00,57.6,37.0,29.74,North,0,0.0,0.0,46,0.00,,SKC,0.00,VWS V14.01,2013-08-24 08:35:00,
2013-08-24 04:40:00,57.6,37.0,29.77,North,0,0.0,0.0,46,0.00,,SKC,0.00,VWS V14.01,2013-08-24 08:40:00,
2013-08-24 04:45:00,57.4,36.8,29.77,North,0,0.0,0.0,46,0.00,,SKC,0.00,VWS V14.01,2013-08-24 08:45:00,
2013-08-24 04:50:00,57.2,36.6,29.77,North,0,0.0,0.0,46,0.00,,SKC,0.00,VWS V14.01,2013-08-24 08:50:00,
2013-08-24 04:55:00,57.2,37.2,29.77,North,0,0.0,0.0,47,0.00,,SKC,0.00,VWS V14.01,2013-08-24 08:55:00,
2013-08-24 05:00:00,57.0,37.0,29.77,North,0,0.0,0.0,47,0.00,,SKC,0.00,VWS V14.01,2013-08-24 09:00:00,
2013-08-24 05:05:00,56.8,36.8,29.77,North,0,0.0,0.0,47,0.00,,SKC,0.00,VWS V14.01,2013-08-24 09:05:00,
2013-08-24 05:10:00,56.8,37.4,29.77,North,0,0.0,0.0,48,0.00,,SKC,0.00,VWS V14.01,2013-08-24 09:10:00,
2013-08-24 05:15:00,56.8,37.4,29.77,North,0,0.0,0.0,48,0.00,,SKC,0.00,VWS V14.01,2013-08-24 09:15:00,
2013-08-24 05:20:00,56.8,37.4,29.77,North,0,0.0,0.0,48,0.00,,SKC,0.00,VWS V14.01,2013-08-24 09:20:00,
2013-08-24 05:25:00,56.8,37.4,29.77,North,0,0.0,0.0,48,0.00,,SKC,0.00,VWS V14.01,2013-08-24 09:25:00,
2013-08-24 05:30:00,57.0,37.5,29.77,North,0,0.0,0.0,48,0.00,,SKC,0.00,VWS V14.01,2013-08-24 09:30:00,
2013-08-24 05:35:00,57.2,37.7,29.77,North,0,0.0,0.0,48,0.00,,SKC,0.00,VWS V14.01,2013-08-24 09:35:00,
2013-08-24 05:40:00,57.6,38.0,29.77,North,0,0.0,0.0,48,0.00,,SKC,0.00,VWS V14.01,2013-08-24 09:40:00,
2013-08-24 05:45:00,57.7,37.7,29.77,North,0,0.0,0.0,47,0.00,,SKC,0.00,VWS V14.01,2013-08-24 09:45:00,
2013-08-24 05:50:00,57.7,37.7,29.77,North,0,0.0,0.0,47,0.00,,SKC,0.00,VWS V14.01,2013-08-24 09:50:00,
2013-08-24 05:55:00,57.9,37.8,29.77,NNW,340,0.0,0.0,47,0.00,,SKC,0.00,VWS V14.01,2013-08-24 09:55:00,
2013-08-24 06:00:00,58.1,37.5,29.77,North,0,0.0,0.0,46,0.00,,SKC,0.00,VWS V14.01,2013-08-24 10:00:00,
2013-08-24 06:05:00,58.3,35.9,29.77,NNE,19,6.4,6.4,43,0.00,,SKC,0.00,VWS V14.01,2013-08-24 10:05:00,
2013-08-24 06:10:00,58.5,36.7,29.80,NE,40,0.0,0.0,44,0.00,,SKC,0.00,VWS V14.01,2013-08-24 10:10:00,
2013-08-24 06:15:00,58.6,36.2,29.80,NE,45,0.0,0.0,43,0.00,,SKC,0.00,VWS V14.01,2013-08-24 10:15:00,
2013-08-24 06:20:00,58.6,36.2,29.80,NE,45,0.0,0.0,43,0.00,,SKC,0.00,VWS V14.01,2013-08-24 10:20:00,
2013-08-24 06:25:00,58.6,35.6,29.80,NNE,25,0.0,0.0,42,0.00,,SKC,0.00,VWS V14.01,2013-08-24 10:25:00,
2013-08-24 06:30:00,58.6,35.6,29.80,NNE,15,0.0,0.0,42,0.00,,SKC,0.00,VWS V14.01,2013-08-24 10:30:00,
2013-08-24 06:35:00,58.6,33.8,29.80,North,357,4.8,4.8,39,0.00,,SKC,0.00,VWS V14.01,2013-08-24 10:35:00,
2013-08-24 06:40:00,59.0,33.5,29.80,North,353,0.0,0.0,38,0.00,,SKC,0.00,VWS V14.01,2013-08-24 10:40:00,
2013-08-24 06:45:00,59.2,33.6,29.80,NE,36,0.0,0.0,38,0.00,,SKC,0.00,VWS V14.01,2013-08-24 10:45:00,
2013-08-24 06:50:00,59.2,33.6,29.80,North,353,0.0,0.0,38,0.00,,SKC,0.00,VWS V14.01,2013-08-24 10:50:00,
2013-08-24 06:55:00,59.2,33.0,29.80,NNE,20,0.0,0.0,37,0.00,,SKC,0.00,VWS V14.01,2013-08-24 10:55:00,
2013-08-24 07:00:00,59.4,33.1,29.80,ENE,73,0.0,2.2,37,0.00,,SKC,0.00,VWS V14.01,2013-08-24 11:00:00,
2013-08-24 07:05:00,59.4,33.1,29.80,NE,34,0.0,0.0,37,0.00,,SKC,0.00,VWS V14.01,2013-08-24 11:05:00,
2013-08-24 07:10:00,59.5,32.6,29.80,NE,46,0.0,2.2,36,0.00,,SKC,0.00,VWS V14.01,2013-08-24 11:10:00,
2013-08-24 07:15:00,59.7,32.7,29.80,ENE,64,0.0,0.0,36,0.00,,SKC,0.00,VWS V14.01,2013-08-24 11:15:00,
2013-08-24 07:20:00,59.7,33.4,29.80,ENE,65,4.0,4.0,37,0.00,,SKC,0.00,VWS V14.01,2013-08-24 11:20:00,
2013-08-24 07:25:00,59.7,33.4,29.80,NE,38,0.0,0.0,37,0.00,,SKC,0.00,VWS V14.01,2013-08-24 11:25:00,
2013-08-24 07:30:00,59.9,32.9,29.80,ENE,76,4.0,4.0,36,0.00,,SKC,0.00,VWS V14.01,2013-08-24 11:30:00,
2013-08-24 07:35:00,60.1,33.1,29.80,North,0,0.0,0.0,36,0.00,,SKC,0.00,VWS V14.01,2013-08-24 11:35:00,
2013-08-24 07:40:00,60.4,33.4,29.80,ENE,70,5.6,5.6,36,0.00,,SKC,0.00,VWS V14.01,2013-08-24 11:40:00,
2013-08-24 07:45:00,61.2,32.6,29.80,East,88,6.4,6.4,34,0.00,,SKC,0.00,VWS V14.01,2013-08-24 11:45:00,
2013-08-24 07:50:00,61.7,33.1,29.80,NNE,14,0.0,0.0,34,0.00,,SKC,0.00,VWS V14.01,2013-08-24 11:50:00,
2013-08-24 07:55:00,62.1,33.4,29.80,ENE,75,0.0,2.7,34,0.00,,SKC,0.00,VWS V14.01,2013-08-24 11:55:00,
2013-08-24 08:00:00,62.4,33.7,29.83,ENE,75,6.4,6.4,34,0.00,,SKC,0.00,VWS V14.01,2013-08-24 12:00:00,
2013-08-24 08:05:00,62.8,33.3,29.83,ENE,70,4.8,4.8,33,0.00,,SKC,0.00,VWS V14.01,2013-08-24 12:05:00,
2013-08-24 08:10:00,63.1,33.6,29.83,East,96,6.4,6.4,33,0.00,,SKC,0.00,VWS V14.01,2013-08-24 12:10:00,
2013-08-24 08:15:00,63.7,34.1,29.83,ENE,63,0.0,0.0,33,0.00,,SKC,0.00,VWS V14.01,2013-08-24 12:15:00,
2013-08-24 08:20:00,64.0,33.6,29.83,North,0,5.6,5.6,32,0.00,,SKC,0.00,VWS V14.01,2013-08-24 12:20:00,
2013-08-24 08:25:00,64.4,33.9,29.83,NNW,344,0.0,0.0,32,0.00,,SKC,0.00,VWS V14.01,2013-08-24 12:25:00,
2013-08-24 08:30:00,64.8,31.8,29.83,North,0,4.8,4.8,29,0.00,,SKC,0.00,VWS V14.01,2013-08-24 12:30:00,
2013-08-24 08:35:00,65.1,32.1,29.83,NE,43,4.8,5.8,29,0.00,,SKC,0.00,VWS V14.01,2013-08-24 12:35:00,
2013-08-24 08:39:00,65.5,32.4,29.83,ENE,72,4.8,4.8,29,0.00,,SKC,0.00,VWS V14.01,2013-08-24 12:39:00,
2013-08-24 08:44:00,65.7,32.6,29.83,East,81,4.0,4.9,29,0.00,,SKC,0.00,VWS V14.01,2013-08-24 12:44:00,
2013-08-24 08:49:00,66.0,32.0,29.83,East,85,4.8,4.8,28,0.00,,SKC,0.00,VWS V14.01,2013-08-24 12:49:00,
2013-08-24 08:54:00,66.2,32.2,29.83,East,82,4.0,4.0,28,0.00,,SKC,0.00,VWS V14.01,2013-08-24 12:54:00,
2013-08-24 08:59:00,66.4,32.3,29.83,NNE,17,6.4,6.4,28,0.00,,SKC,0.00,VWS V14.01,2013-08-24 12:59:00,
2013-08-24 09:04:00,66.6,30.6,29.83,NE,51,10.5,10.5,26,0.00,,SKC,0.00,VWS V14.01,2013-08-24 13:04:00,
2013-08-24 09:09:00,66.6,31.6,29.83,ENE,69,4.0,4.0,27,0.00,,SKC,0.00,VWS V14.01,2013-08-24 13:09:00,
2013-08-24 09:14:00,66.9,31.0,29.83,NW,321,4.8,4.8,26,0.00,,SKC,0.00,VWS V14.01,2013-08-24 13:14:00,
2013-08-24 09:19:00,67.1,31.1,29.83,NNW,335,0.0,4.0,26,0.00,,SKC,0.00,VWS V14.01,2013-08-24 13:19:00,
2013-08-24 09:24:00,67.3,32.2,29.83,NW,304,0.0,0.0,27,0.00,,SKC,0.00,VWS V14.01,2013-08-24 13:24:00,
2013-08-24 09:29:00,67.6,31.6,29.83,ENE,64,8.9,8.9,26,0.00,,SKC,0.00,VWS V14.01,2013-08-24 13:29:00,
2013-08-24 09:34:00,68.0,31.9,29.83,NE,53,5.6,5.6,26,0.00,,SKC,0.00,VWS V14.01,2013-08-24 13:34:00,
2013-08-24 09:39:00,68.2,31.0,29.83,North,10,4.8,5.4,25,0.00,,SKC,0.00,VWS V14.01,2013-08-24 13:39:00,
2013-08-24 09:44:00,67.8,29.7,29.83,NE,40,4.8,5.4,24,0.00,,SKC,0.00,VWS V14.01,2013-08-24 13:44:00,
2013-08-24 09:49:00,68.0,30.9,29.83,NNW,333,0.0,0.0,25,0.00,,SKC,0.00,VWS V14.01,2013-08-24 13:49:00,
2013-08-24 09:54:00,68.4,30.2,29.83,East,96,4.8,4.8,24,0.00,,SKC,0.00,VWS V14.01,2013-08-24 13:54:00,
2013-08-24 09:59:00,68.5,30.4,29.85,East,98,0.0,0.0,24,0.00,,SKC,0.00,VWS V14.01,2013-08-24 13:59:00,
2013-08-24 10:04:00,68.9,29.6,29.85,NNW,329,4.0,4.9,23,0.00,,SKC,0.00,VWS V14.01,2013-08-24 14:04:00,
2013-08-24 10:09:00,69.3,29.9,29.85,East,90,4.0,4.0,23,0.00,,SKC,0.00,VWS V14.01,2013-08-24 14:09:00,
2013-08-24 10:14:00,69.6,30.2,29.85,NE,49,11.3,11.3,23,0.00,,SKC,0.00,VWS V14.01,2013-08-24 14:14:00,
2013-08-24 10:19:00,69.6,30.2,29.85,NE,37,6.4,6.4,23,0.00,,SKC,0.00,VWS V14.01,2013-08-24 14:19:00,
2013-08-24 10:24:00,69.6,30.2,29.85,NNE,20,9.7,9.7,23,0.00,,SKC,0.00,VWS V14.01,2013-08-24 14:24:00,
2013-08-24 10:29:00,69.6,30.2,29.85,ENE,71,4.8,4.8,23,0.00,,SKC,0.00,VWS V14.01,2013-08-24 14:29:00,
2013-08-24 10:34:00,69.6,30.2,29.85,East,85,0.0,0.0,23,0.00,,SKC,0.00,VWS V14.01,2013-08-24 14:34:00,
2013-08-24 10:39:00,70.0,30.5,29.85,NNW,338,6.4,6.4,23,0.00,,SKC,0.00,VWS V14.01,2013-08-24 14:39:00,
2013-08-24 10:44:00,70.3,30.8,29.85,East,89,6.4,6.4,23,0.00,,SKC,0.00,VWS V14.01,2013-08-24 14:44:00,
2013-08-24 10:49:00,70.3,30.8,29.85,NE,37,4.0,4.0,23,0.00,,SKC,0.00,VWS V14.01,2013-08-24 14:49:00,
2013-08-24 10:54:00,70.9,31.3,29.85,ENE,72,4.8,4.8,23,0.00,,SKC,0.00,VWS V14.01,2013-08-24 14:54:00,
2013-08-24 10:59:00,71.2,30.5,29.83,North,349,4.8,4.8,22,0.00,,SKC,0.00,VWS V14.01,2013-08-24 14:59:00,
2013-08-24 11:04:00,71.4,31.7,29.83,West,272,7.2,7.2,23,0.00,,SKC,0.00,VWS V14.01,2013-08-24 15:04:00,
2013-08-24 11:09:00,71.6,30.8,29.83,NNW,333,5.6,5.6,22,0.00,,SKC,0.00,VWS V14.01,2013-08-24 15:09:00,
2013-08-24 11:14:00,71.6,30.8,29.85,NE,34,4.8,4.8,22,0.00,,SKC,0.00,VWS V14.01,2013-08-24 15:14:00,
2013-08-24 11:19:00,71.8,29.8,29.85,ENE,77,8.9,8.9,21,0.00,,SKC,0.00,VWS V14.01,2013-08-24 15:19:00,
2013-08-24 11:24:00,71.8,30.9,29.85,NW,325,5.6,5.6,22,0.00,,SKC,0.00,VWS V14.01,2013-08-24 15:24:00,
2013-08-24 11:29:00,71.8,30.9,29.85,North,0,0.0,0.0,22,0.00,,SKC,0.00,VWS V14.01,2013-08-24 15:29:00,
2013-08-24 11:34:00,72.1,30.1,29.85,NNE,27,7.2,7.2,21,0.00,,SKC,0.00,VWS V14.01,2013-08-24 15:34:00,
2013-08-24 11:39:00,72.0,29.9,29.85,ESE,105,4.8,4.8,21,0.00,,SKC,0.00,VWS V14.01,2013-08-24 15:39:00,
2013-08-24 11:44:00,72.0,29.9,29.85,ENE,69,6.4,6.4,21,0.00,,SKC,0.00,VWS V14.01,2013-08-24 15:44:00,
2013-08-24 11:49:00,72.0,29.9,29.85,NNE,16,0.0,2.7,21,0.00,,SKC,0.00,VWS V14.01,2013-08-24 15:49:00,
2013-08-24 11:54:00,72.1,30.1,29.85,North,350,0.0,0.0,21,0.00,,SKC,0.00,VWS V14.01,2013-08-24 15:54:00,
2013-08-24 11:59:00,72.3,30.2,29.85,WNW,303,5.6,5.6,21,0.00,,SKC,0.00,VWS V14.01,2013-08-24 15:59:00,
2013-08-24 12:04:00,72.7,30.5,29.85,NE,34,0.0,0.0,21,0.00,,SKC,0.00,VWS V14.01,2013-08-24 16:04:00,
2013-08-24 12:09:00,73.0,30.8,29.85,North,0,4.8,4.8,21,0.00,,SKC,0.00,VWS V14.01,2013-08-24 16:09:00,
2013-08-24 12:14:00,73.2,31.0,29.85,NW,324,0.0,2.7,21,0.00,,SKC,0.00,VWS V14.01,2013-08-24 16:14:00,
2013-08-24 12:19:00,73.6,31.3,29.85,NE,49,7.2,7.2,21,0.00,,SKC,0.00,VWS V14.01,2013-08-24 16:19:00,
2013-08-24 12:24:00,73.0,28.4,29.85,ENE,61,6.4,6.4,19,0.00,,SKC,0.00,VWS V14.01,2013-08-24 16:24:00,
2013-08-24 12:29:00,72.9,28.2,29.85,West,273,0.0,0.0,19,0.00,,SKC,0.00,VWS V14.01,2013-08-24 16:29:00,
2013-08-24 12:34:00,73.0,28.4,29.85,WNW,283,4.0,4.0,19,0.00,,SKC,0.00,VWS V14.01,2013-08-24 16:34:00,
2013-08-24 12:39:00,73.2,28.5,29.85,SSE,147,0.0,0.0,19,0.00,,SKC,0.00,VWS V14.01,2013-08-24 16:39:00,
2013-08-24 12:44:00,73.9,27.8,29.83,ENE,57,6.4,6.4,18,0.00,,SKC,0.00,VWS V14.01,2013-08-24 16:44:00,
2013-08-24 12:49:00,73.8,27.6,29.83,SSW,200,6.4,6.4,18,0.00,,SKC,0.00,VWS V14.01,2013-08-24 16:49:00,
2013-08-24 12:54:00,74.1,27.9,29.83,North,353,5.6,5.6,18,0.00,,SKC,0.00,VWS V14.01,2013-08-24 16:54:00,
2013-08-24 12:59:00,74.3,28.1,29.83,ENE,62,4.8,5.4,18,0.00,,SKC,0.00,VWS V14.01,2013-08-24 16:59:00,
2013-08-24 13:04:00,74.5,28.2,29.83,West,264,4.8,4.8,18,0.00,,SKC,0.00,VWS V14.01,2013-08-24 17:04:00,
2013-08-24 13:09:00,74.7,28.4,29.83,NE,42,7.2,7.2,18,0.00,,SKC,0.00,VWS V14.01,2013-08-24 17:09:00,
2013-08-24 13:14:00,74.5,28.2,29.83,ENE,67,5.6,5.6,18,0.00,,SKC,0.00,VWS V14.01,2013-08-24 17:14:00,
2013-08-24 13:19:00,74.7,28.4,29.83,SSE,168,0.0,0.0,18,0.00,,SKC,0.00,VWS V14.01,2013-08-24 17:19:00,
2013-08-24 13:24:00,74.8,28.5,29.83,ENE,77,0.0,0.0,18,0.00,,SKC,0.00,VWS V14.01,2013-08-24 17:24:00,
2013-08-24 13:29:00,75.0,25.8,29.83,NNW,343,4.0,4.0,16,0.00,,SKC,0.00,VWS V14.01,2013-08-24 17:29:00,
2013-08-24 13:34:00,75.2,24.4,29.83,NNE,24,7.2,7.2,15,0.00,,SKC,0.00,VWS V14.01,2013-08-24 17:34:00,
2013-08-24 13:39:00,75.2,24.4,29.83,East,90,4.8,8.7,15,0.00,,SKC,0.00,VWS V14.01,2013-08-24 17:39:00,
2013-08-24 13:44:00,75.0,25.8,29.83,WSW,239,0.0,0.0,16,0.00,,SKC,0.00,VWS V14.01,2013-08-24 17:44:00,
2013-08-24 13:49:00,75.6,24.7,29.83,North,8,5.6,5.6,15,0.00,,SKC,0.00,VWS V14.01,2013-08-24 17:49:00,
2013-08-24 13:54:00,75.6,24.7,29.83,ENE,65,6.4,6.4,15,0.00,,SKC,0.00,VWS V14.01,2013-08-24 17:54:00,
2013-08-24 13:59:00,75.6,24.7,29.83,NNE,24,5.6,5.6,15,0.00,,SKC,0.00,VWS V14.01,2013-08-24 17:59:00,
2013-08-24 14:04:00,75.9,25.0,29.83,SW,226,0.0,2.2,15,0.00,,SKC,0.00,VWS V14.01,2013-08-24 18:04:00,
2013-08-24 14:09:00,76.5,25.4,29.83,North,357,4.0,4.9,15,0.00,,SKC,0.00,VWS V14.01,2013-08-24 18:09:00,
2013-08-24 14:13:00,76.5,25.4,29.83,North,357,0.0,0.0,15,0.00,,SKC,0.00,VWS V14.01,2013-08-24 18:13:00,
2013-08-24 14:18:00,76.6,25.6,29.83,NNE,27,4.8,4.8,15,0.00,,SKC,0.00,VWS V14.01,2013-08-24 18:18:00,
2013-08-24 14:23:00,76.5,25.4,29.83,NNE,32,0.0,3.6,15,0.00,,SKC,0.00,VWS V14.01,2013-08-24 18:23:00,
2013-08-24 14:28:00,76.6,25.6,29.83,East,97,0.0,0.0,15,0.00,,SKC,0.00,VWS V14.01,2013-08-24 18:28:00,
2013-08-24 14:33:00,76.8,25.7,29.83,ENE,71,0.0,0.0,15,0.00,,SKC,0.00,VWS V14.01,2013-08-24 18:33:00,
2013-08-24 14:38:00,77.2,26.0,29.83,North,0,4.0,4.0,15,0.00,,SKC,0.00,VWS V14.01,2013-08-24 18:38:00,
2013-08-24 14:43:00,76.8,25.7,29.83,ENE,74,0.0,0.0,15,0.00,,SKC,0.00,VWS V14.01,2013-08-24 18:43:00,
2013-08-24 14:48:00,77.0,25.9,29.83,North,353,5.6,5.6,15,0.00,,SKC,0.00,VWS V14.01,2013-08-24 18:48:00,
2013-08-24 14:53:00,76.6,25.6,29.83,NE,42,5.6,5.6,15,0.00,,SKC,0.00,VWS V14.01,2013-08-24 18:53:00,
2013-08-24 14:58:00,76.1,25.1,29.83,West,261,0.0,2.7,15,0.00,,SKC,0.00,VWS V14.01,2013-08-24 18:58:00,
2013-08-24 15:03:00,76.8,25.7,29.83,West,277,0.0,0.0,15,0.00,,SKC,0.00,VWS V14.01,2013-08-24 19:03:00,
2013-08-24 15:08:00,77.7,26.4,29.83,WSW,238,0.0,0.0,15,0.00,,SKC,0.00,VWS V14.01,2013-08-24 19:08:00,
2013-08-24 15:13:00,78.8,27.3,29.83,NNE,27,4.8,4.8,15,0.00,,SKC,0.00,VWS V14.01,2013-08-24 19:13:00,
2013-08-24 15:18:00,78.4,27.0,29.83,North,357,0.0,5.8,15,0.00,,SKC,0.00,VWS V14.01,2013-08-24 19:18:00,
2013-08-24 15:23:00,77.9,26.6,29.83,East,90,7.2,7.2,15,0.00,,SKC,0.00,VWS V14.01,2013-08-24 19:23:00,
2013-08-24 15:28:00,77.7,26.4,29.83,East,92,4.8,4.8,15,0.00,,SKC,0.00,VWS V14.01,2013-08-24 19:28:00,
2013-08-24 15:33:00,77.9,26.6,29.83,ENE,75,4.0,4.0,15,0.00,,SKC,0.00,VWS V14.01,2013-08-24 19:33:00,
2013-08-24 15:38:00,78.8,27.3,29.83,East,101,5.6,5.6,15,0.00,,SKC,0.00,VWS V14.01,2013-08-24 19:38:00,
2013-08-24 15:43:00,78.6,27.1,29.83,NNW,330,0.0,2.7,15,0.00,,SKC,0.00,VWS V14.01,2013-08-24 19:43:00,
2013-08-24 15:48:00,78.4,27.0,29.83,North,357,0.0,2.2,15,0.00,,SKC,0.00,VWS V14.01,2013-08-24 19:48:00,
2013-08-24 15:53:00,78.3,26.9,29.83,North,7,0.0,0.0,15,0.00,,SKC,0.00,VWS V14.01,2013-08-24 19:53:00,
2013-08-24 15:58:00,78.1,26.7,29.83,East,95,0.0,0.0,15,0.00,,SKC,0.00,VWS V14.01,2013-08-24 19:58:00,
2013-08-24 16:03:00,78.1,26.7,29.83,WNW,300,0.0,0.0,15,0.00,,SKC,0.00,VWS V14.01,2013-08-24 20:03:00,
2013-08-24 16:08:00,78.1,26.7,29.83,ESE,109,4.8,4.8,15,0.00,,SKC,0.00,VWS V14.01,2013-08-24 20:08:00,
2013-08-24 16:13:00,78.1,26.7,29.83,NNE,30,5.6,5.6,15,0.00,,SKC,0.00,VWS V14.01,2013-08-24 20:13:00,
2013-08-24 16:18:00,78.3,26.9,29.83,North,353,0.0,0.0,15,0.00,,SKC,0.00,VWS V14.01,2013-08-24 20:18:00,
2013-08-24 16:23:00,78.4,27.0,29.83,NNW,334,5.6,5.6,15,0.00,,SKC,0.00,VWS V14.01,2013-08-24 20:23:00,
2013-08-24 16:28:00,78.4,27.0,29.83,NE,38,0.0,2.2,15,0.00,,SKC,0.00,VWS V14.01,2013-08-24 20:28:00,
2013-08-24 16:33:00,78.1,26.7,29.83,SW,234,0.0,0.0,15,0.00,,SKC,0.00,VWS V14.01,2013-08-24 20:33:00,
2013-08-24 16:38:00,77.7,26.4,29.83,ENE,74,0.0,2.7,15,0.00,,SKC,0.00,VWS V14.01,2013-08-24 20:38:00,
2013-08-24 16:43:00,78.1,26.7,29.83,NE,48,4.0,4.0,15,0.00,,SKC,0.00,VWS V14.01,2013-08-24 20:43:00,
2013-08-24 16:48:00,78.4,27.0,29.83,NNE,27,0.0,0.0,15,0.00,,SKC,0.00,VWS V14.01,2013-08-24 20:48:00,
2013-08-24 16:53:00,78.4,27.0,29.83,NNE,15,0.0,2.7,15,0.00,,SKC,0.00,VWS V14.01,2013-08-24 20:53:00,
2013-08-24 16:58:00,78.4,27.0,29.83,SSW,204,4.0,4.0,15,0.00,,SKC,0.00,VWS V14.01,2013-08-24 20:58:00,
2013-08-24 17:03:00,78.4,27.0,29.83,WSW,249,4.8,4.8,15,0.00,,SKC,0.00,VWS V14.01,2013-08-24 21:03:00,
2013-08-24 17:08:00,78.3,26.9,29.83,WSW,250,0.0,0.0,15,0.00,,SKC,0.00,VWS V14.01,2013-08-24 21:08:00,
2013-08-24 17:13:00,78.3,26.9,29.83,NNE,24,5.6,5.6,15,0.00,,SKC,0.00,VWS V14.01,2013-08-24 21:13:00,
2013-08-24 17:18:00,77.7,26.4,29.83,North,353,0.0,0.0,15,0.00,,SKC,0.00,VWS V14.01,2013-08-24 21:18:00,
2013-08-24 17:23:00,77.0,25.9,29.83,NE,48,0.0,0.0,15,0.00,,SKC,0.00,VWS V14.01,2013-08-24 21:23:00,
2013-08-24 17:28:00,76.6,25.6,29.83,NE,48,0.0,5.4,15,0.00,,SKC,0.00,VWS V14.01,2013-08-24 21:28:00,
2013-08-24 17:33:00,76.5,25.4,29.83,NE,44,6.4,6.4,15,0.00,,SKC,0.00,VWS V14.01,2013-08-24 21:33:00,
2013-08-24 17:38:00,76.3,25.3,29.83,ENE,73,0.0,0.0,15,0.00,,SKC,0.00,VWS V14.01,2013-08-24 21:38:00,
2013-08-24 17:43:00,76.3,25.3,29.83,ENE,72,0.0,0.0,15,0.00,,SKC,0.00,VWS V14.01,2013-08-24 21:43:00,
2013-08-24 17:48:00,76.1,25.1,29.83,NE,53,0.0,0.0,15,0.00,,SKC,0.00,VWS V14.01,2013-08-24 21:48:00,
2013-08-24 17:53:00,75.9,25.0,29.83,NE,56,0.0,0.0,15,0.00,,SKC,0.00,VWS V14.01,2013-08-24 21:53:00,
2013-08-24 17:58:00,75.7,24.9,29.83,NE,56,0.0,0.0,15,0.00,,SKC,0.00,VWS V14.01,2013-08-24 21:58:00,
2013-08-24 18:03:00,75.6,24.7,29.83,East,92,0.0,0.0,15,0.00,,SKC,0.00,VWS V14.01,2013-08-24 22:03:00,
2013-08-24 18:08:00,75.6,24.7,29.83,East,92,0.0,0.0,15,0.00,,SKC,0.00,VWS V14.01,2013-08-24 22:08:00,
2013-08-24 18:13:00,75.4,24.6,29.83,NNW,348,0.0,0.0,15,0.00,,SKC,0.00,VWS V14.01,2013-08-24 22:13:00,
2013-08-24 18:18:00,75.2,24.4,29.83,NE,43,0.0,0.0,15,0.00,,SKC,0.00,VWS V14.01,2013-08-24 22:18:00,
2013-08-24 18:23:00,74.8,28.5,29.83,NE,40,0.0,0.0,18,0.00,,SKC,0.00,VWS V14.01,2013-08-24 22:23:00,
2013-08-24 18:28:00,74.7,28.4,29.83,NE,40,0.0,0.0,18,0.00,,SKC,0.00,VWS V14.01,2013-08-24 22:28:00,
2013-08-24 18:33:00,74.5,28.2,29.83,NE,40,0.0,0.0,18,0.00,,SKC,0.00,VWS V14.01,2013-08-24 22:33:00,
2013-08-24 18:38:00,74.3,28.1,29.83,NE,51,0.0,0.0,18,0.00,,SKC,0.00,VWS V14.01,2013-08-24 22:38:00,
2013-08-24 18:43:00,74.1,31.7,29.83,NE,51,0.0,0.0,21,0.00,,SKC,0.00,VWS V14.01,2013-08-24 22:43:00,
2013-08-24 18:48:00,73.8,31.4,29.83,East,95,0.0,0.0,21,0.00,,SKC,0.00,VWS V14.01,2013-08-24 22:48:00,
2013-08-24 18:53:00,73.4,31.1,29.83,East,95,0.0,0.0,21,0.00,,SKC,0.00,VWS V14.01,2013-08-24 22:53:00,
2013-08-24 18:58:00,73.0,32.0,29.83,East,95,0.0,0.0,22,0.00,,SKC,0.00,VWS V14.01,2013-08-24 22:58:00,
2013-08-24 19:03:00,72.7,31.7,29.83,East,95,0.0,0.0,22,0.00,,SKC,0.00,VWS V14.01,2013-08-24 23:03:00,
2013-08-24 19:08:00,72.5,31.5,29.83,East,95,0.0,0.0,22,0.00,,SKC,0.00,VWS V14.01,2013-08-24 23:08:00,
2013-08-24 19:13:00,72.0,32.2,29.83,East,95,0.0,0.0,23,0.00,,SKC,0.00,VWS V14.01,2013-08-24 23:13:00,
2013-08-24 19:18:00,71.6,31.9,29.83,East,95,0.0,0.0,23,0.00,,SKC,0.00,VWS V14.01,2013-08-24 23:18:00,
2013-08-24 19:23:00,71.2,32.6,29.83,East,95,0.0,0.0,24,0.00,,SKC,0.00,VWS V14.01,2013-08-24 23:23:00,
2013-08-24 19:28:00,70.7,32.2,29.83,East,95,0.0,0.0,24,0.00,,SKC,0.00,VWS V14.01,2013-08-24 23:28:00,
2013-08-24 19:33:00,70.5,33.0,29.83,East,95,0.0,0.0,25,0.00,,SKC,0.00,VWS V14.01,2013-08-24 23:33:00,
2013-08-24 19:38:00,70.0,31.6,29.83,East,95,0.0,0.0,24,0.00,,SKC,0.00,VWS V14.01,2013-08-24 23:38:00,
2013-08-24 19:43:00,69.6,32.3,29.85,East,95,0.0,0.0,25,0.00,,SKC,0.00,VWS V14.01,2013-08-24 23:43:00,
2013-08-24 19:48:00,69.3,32.9,29.85,East,95,0.0,0.0,26,0.00,,SKC,0.00,VWS V14.01,2013-08-24 23:48:00,
2013-08-24 19:53:00,69.1,32.8,29.85,East,95,0.0,0.0,26,0.00,,SKC,0.00,VWS V14.01,2013-08-24 23:53:00,
2013-08-24 19:58:00,68.7,32.5,29.85,East,95,0.0,0.0,26,0.00,,SKC,0.00,VWS V14.01,2013-08-24 23:58:00,
2013-08-24 20:03:00,68.4,32.2,29.85,East,95,0.0,0.0,26,0.00,,SKC,0.00,VWS V14.01,2013-08-25 00:03:00,
2013-08-24 20:07:00,67.8,33.5,29.85,East,95,0.0,0.0,28,0.00,,SKC,0.00,VWS V14.01,2013-08-25 00:07:00,
2013-08-24 20:12:00,67.5,34.1,29.85,East,95,0.0,0.0,29,0.00,,SKC,0.00,VWS V14.01,2013-08-25 00:12:00,
2013-08-24 20:17:00,67.1,34.7,29.85,East,95,0.0,0.0,30,0.00,,SKC,0.00,VWS V14.01,2013-08-25 00:17:00,
2013-08-24 20:22:00,66.7,35.2,29.85,East,95,0.0,0.0,31,0.00,,SKC,0.00,VWS V14.01,2013-08-25 00:22:00,
2013-08-24 20:27:00,66.4,35.7,29.85,East,95,0.0,0.0,32,0.00,,SKC,0.00,VWS V14.01,2013-08-25 00:27:00,
2013-08-24 20:32:00,66.0,36.1,29.85,East,95,0.0,0.0,33,0.00,,SKC,0.00,VWS V14.01,2013-08-25 00:32:00,
2013-08-24 20:37:00,65.8,36.0,29.85,East,95,0.0,0.0,33,0.00,,SKC,0.00,VWS V14.01,2013-08-25 00:37:00,
2013-08-24 20:42:00,65.7,35.8,29.85,East,95,0.0,0.0,33,0.00,,SKC,0.00,VWS V14.01,2013-08-25 00:42:00,
2013-08-24 20:47:00,65.3,36.2,29.85,East,95,0.0,0.0,34,0.00,,SKC,0.00,VWS V14.01,2013-08-25 00:47:00,
2013-08-24 20:52:00,64.9,35.9,29.85,East,95,0.0,0.0,34,0.00,,SKC,0.00,VWS V14.01,2013-08-25 00:52:00,
2013-08-24 20:57:00,64.6,35.6,29.88,East,95,0.0,0.0,34,0.00,,SKC,0.00,VWS V14.01,2013-08-25 00:57:00,
2013-08-24 21:02:00,64.2,36.0,29.88,East,95,0.0,0.0,35,0.00,,SKC,0.00,VWS V14.01,2013-08-25 01:02:00,
2013-08-24 21:07:00,64.0,35.9,29.88,East,95,0.0,0.0,35,0.00,,SKC,0.00,VWS V14.01,2013-08-25 01:07:00,
2013-08-24 21:12:00,63.7,36.2,29.88,East,95,0.0,0.0,36,0.00,,SKC,0.00,VWS V14.01,2013-08-25 01:12:00,
2013-08-24 21:17:00,63.5,36.1,29.88,East,95,0.0,0.0,36,0.00,,SKC,0.00,VWS V14.01,2013-08-25 01:17:00,
2013-08-24 21:22:00,63.1,36.5,29.88,East,95,0.0,0.0,37,0.00,,SKC,0.00,VWS V14.01,2013-08-25 01:22:00,
2013-08-24 21:27:00,63.0,37.0,29.88,East,95,0.0,0.0,38,0.00,,SKC,0.00,VWS V14.01,2013-08-25 01:27:00,
2013-08-24 21:32:00,62.8,37.5,29.88,East,95,0.0,0.0,39,0.00,,SKC,0.00,VWS V14.01,2013-08-25 01:32:00,
2013-08-24 21:37:00,62.6,37.3,29.88,East,95,0.0,0.0,39,0.00,,SKC,0.00,VWS V14.01,2013-08-25 01:37:00,
2013-08-24 21:42:00,62.4,37.8,29.88,East,95,0.0,0.0,40,0.00,,SKC,0.00,VWS V14.01,2013-08-25 01:42:00,
2013-08-24 21:47:00,62.2,38.3,29.88,East,95,0.0,0.0,41,0.00,,SKC,0.00,VWS V14.01,2013-08-25 01:47:00,
2013-08-24 21:52:00,61.9,38.6,29.88,East,95,0.0,0.0,42,0.00,,SKC,0.00,VWS V14.01,2013-08-25 01:52:00,
2013-08-24 21:57:00,61.7,38.4,29.88,East,95,0.0,0.0,42,0.00,,SKC,0.00,VWS V14.01,2013-08-25 01:57:00,
2013-08-24 22:02:00,61.5,38.8,29.88,East,95,0.0,0.0,43,0.00,,SKC,0.00,VWS V14.01,2013-08-25 02:02:00,
2013-08-24 22:07:00,61.3,38.7,29.88,East,95,0.0,0.0,43,0.00,,SKC,0.00,VWS V14.01,2013-08-25 02:07:00,
2013-08-24 22:12:00,61.0,38.9,29.88,East,95,0.0,0.0,44,0.00,,SKC,0.00,VWS V14.01,2013-08-25 02:12:00,
2013-08-24 22:17:00,60.8,38.8,29.88,East,95,0.0,0.0,44,0.00,,SKC,0.00,VWS V14.01,2013-08-25 02:17:00,
2013-08-24 22:22:00,60.6,39.2,29.88,East,95,0.0,0.0,45,0.00,,SKC,0.00,VWS V14.01,2013-08-25 02:22:00,
2013-08-24 22:27:00,60.4,39.0,29.88,East,95,0.0,0.0,45,0.00,,SKC,0.00,VWS V14.01,2013-08-25 02:27:00,
2013-08-24 22:32:00,60.3,38.8,29.88,East,95,0.0,0.0,45,0.00,,SKC,0.00,VWS V14.01,2013-08-25 02:32:00,
2013-08-24 22:37:00,60.1,38.7,29.88,East,95,0.0,0.0,45,0.00,,SKC,0.00,VWS V14.01,2013-08-25 02:37:00,
2013-08-24 22:42:00,60.1,39.2,29.88,East,95,0.0,0.0,46,0.00,,SKC,0.00,VWS V14.01,2013-08-25 02:42:00,
2013-08-24 22:47:00,60.1,39.2,29.88,East,95,0.0,0.0,46,0.00,,SKC,0.00,VWS V14.01,2013-08-25 02:47:00,
2013-08-24 22:52:00,59.9,39.1,29.88,East,95,0.0,0.0,46,0.00,,SKC,0.00,VWS V14.01,2013-08-25 02:52:00,
2013-08-24 22:57:00,59.7,38.9,29.88,East,95,0.0,0.0,46,0.00,,SKC,0.00,VWS V14.01,2013-08-25 02:57:00,
2013-08-24 23:02:00,59.7,39.5,29.88,East,95,0.0,0.0,47,0.00,,SKC,0.00,VWS V14.01,2013-08-25 03:02:00,
2013-08-24 23:07:00,59.5,39.3,29.88,East,95,0.0,0.0,47,0.00,,SKC,0.00,VWS V14.01,2013-08-25 03:07:00,
2013-08-24 23:12:00,59.4,39.2,29.88,East,95,0.0,0.0,47,0.00,,SKC,0.00,VWS V14.01,2013-08-25 03:12:00,
2013-08-24 23:17:00,59.4,39.7,29.88,East,95,0.0,0.0,48,0.00,,SKC,0.00,VWS V14.01,2013-08-25 03:17:00,
2013-08-24 23:22:00,59.2,39.5,29.88,East,95,0.0,0.0,48,0.00,,SKC,0.00,VWS V14.01,2013-08-25 03:22:00,
2013-08-24 23:27:00,59.0,39.4,29.88,East,95,0.0,0.0,48,0.00,,SKC,0.00,VWS V14.01,2013-08-25 03:27:00,
2013-08-24 23:32:00,59.0,39.9,29.88,East,95,0.0,0.0,49,0.00,,SKC,0.00,VWS V14.01,2013-08-25 03:32:00,
2013-08-24 23:37:00,58.8,40.2,29.88,East,95,0.0,0.0,50,0.00,,SKC,0.00,VWS V14.01,2013-08-25 03:37:00,
2013-08-24 23:42:00,58.8,40.2,29.88,East,95,0.0,0.0,50,0.00,,SKC,0.00,VWS V14.01,2013-08-25 03:42:00,
2013-08-24 23:47:00,58.6,40.1,29.88,East,95,0.0,0.0,50,0.00,,SKC,0.00,VWS V14.01,2013-08-25 03:47:00,
2013-08-24 23:52:00,58.6,40.6,29.88,East,95,0.0,0.0,51,0.00,,SKC,0.00,VWS V14.01,2013-08-25 03:52:00,
2013-08-24 23:57:00,58.6,40.6,29.88,East,95,0.0,0.0,51,0.00,,SKC,0.00,VWS V14.01,2013-08-25 03:57:00,